Latest Weather Observations for Canberra

IDN60901

Issued at 11:55 pm EDT Monday 20 October 2014 (issued every 10 minutes, with the page automatically refreshed every 10 minutes)

About weather observations | Map of Canberra area stations | Latest observations for Canberra area | Other Formats
Station Details ID: 070351 Name: CANBERRA AIRPORT Lat: -35.31 Lon: 149.20 Height: 577.05 m
Data from the previous 72 hours. | See also: Recent months at Canberra
Date/Time
EDT
Tmp

°C
App
Tmp
°C
Dew
Point
°C
Rel
Hum
%
Delta-T

°C
Wind Press
QNH
hPa
Press
MSL
hPa
Rain
since
9 am
mm
Dir
 
Spd
km/h
Gust
km/h
Spd
kts
Gust
kts
20/11:30pm 10.1 6.5 6.8 80 1.6 SE 15 20 8 11 1032.0 - 0.0
20/11:00pm 10.2 6.2 6.7 79 1.7 SE 17 24 9 13 1032.0 - 0.0
20/10:30pm 10.4 6.0 6.7 78 1.8 ESE 19 28 10 15 1031.9 - 0.0
20/10:00pm 10.6 6.6 6.7 77 1.9 ESE 17 22 9 12 1031.9 - 0.0
20/09:30pm 10.9 6.6 6.8 76 2.0 ESE 19 28 10 15 1031.7 - 0.0
20/09:00pm 11.0 7.1 7.1 77 1.9 ESE 17 22 9 12 1031.5 1031.2 0.0
20/08:30pm 11.0 7.9 7.1 77 1.9 ESE 13 22 7 12 1031.1 - 0.0
20/08:00pm 11.1 7.2 7.2 77 1.9 E 17 26 9 14 1030.7 - 0.0
20/07:30pm 11.4 7.8 6.9 74 2.2 E 15 20 8 11 1030.6 - 0.0
20/07:00pm 11.6 8.1 7.3 75 2.1 E 15 20 8 11 1030.3 - 0.0
20/06:30pm 11.8 7.4 7.5 75 2.1 E 20 28 11 15 1030.0 - 0.0
20/06:00pm 12.4 8.1 7.7 73 2.4 E 20 30 11 16 1029.9 1029.6 0.0
20/05:30pm 12.8 8.5 7.9 72 2.5 E 20 28 11 15 1029.8 - 0.0
20/05:00pm 13.3 9.1 8.2 71 2.6 E 20 26 11 14 1029.6 - 0.0
20/04:30pm 13.4 8.3 7.6 68 2.9 E 24 33 13 18 1029.3 - 0.0
20/04:00pm 14.4 9.5 8.6 68 3.0 ENE 24 32 13 17 1029.2 - 0.0
20/03:30pm 15.0 10.9 8.5 65 3.4 ENE 20 28 11 15 1029.2 - 0.0
20/03:00pm 15.3 10.8 8.5 64 3.5 E 22 30 12 16 1029.3 1028.9 0.0
20/02:30pm 15.9 11.6 9.3 65 3.5 ENE 22 30 12 16 1029.4 - 0.0
20/02:00pm 15.4 10.7 9.3 67 3.2 E 24 32 13 17 1029.6 - 0.0
20/01:30pm 15.6 10.9 9.1 65 3.4 E 24 33 13 18 1029.5 - 0.0
20/01:00pm 15.8 11.2 9.5 66 3.4 E 24 33 13 18 1029.5 - 0.0
20/12:30pm 15.6 10.9 9.1 65 3.4 ENE 24 33 13 18 1029.5 - 0.0
20/12:00pm 15.3 10.6 10.5 73 2.6 E 26 30 14 16 1029.7 1029.4 0.0
20/11:30am 16.6 13.2 10.5 67 3.3 E 19 28 10 15 1029.6 - 0.0
20/11:00am 16.4 13.1 10.9 70 3.0 ENE 19 28 10 15 1029.7 - 0.0
20/10:30am 16.0 13.0 10.7 71 2.9 ENE 17 24 9 13 1029.6 - 0.0
20/10:00am 15.9 13.0 10.9 72 2.7 ENE 17 26 9 14 1029.6 - 0.0
20/09:30am 15.5 12.5 10.5 72 2.7 E 17 24 9 13 1029.2 - 0.0
20/09:00am 16.1 13.0 10.4 69 3.1 E 17 22 9 12 1028.8 1028.4 0.0
20/08:30am 15.5 13.1 8.7 64 3.6 E 11 17 6 9 1028.3 - 0.0
20/08:00am 14.9 12.3 9.3 69 3.0 SE 13 17 7 9 1027.9 - 0.0
20/07:30am 13.7 10.3 9.2 74 2.4 SSE 17 26 9 14 1027.2 - 0.0
20/07:00am 12.2 10.0 9.2 82 1.6 SE 11 15 6 8 1026.8 - 0.0
20/06:30am 11.3 8.5 8.5 83 1.4 SE 13 17 7 9 1025.9 - 0.0
20/06:00am 8.7 6.4 7.5 92 0.6 SE 9 15 5 8 1025.4 1025.0 0.0
20/05:30am 8.5 7.5 5.8 83 1.3 CALM 0 0 0 0 1024.3 - 0.0
20/05:00am 9.4 7.0 6.8 84 1.3 SE 9 11 5 6 1024.0 - 0.0
20/04:30am 9.7 9.0 6.8 82 1.4 CALM 0 0 0 0 1023.6 - 0.0
20/04:00am 9.9 9.2 6.8 81 1.5 CALM 0 0 0 0 1023.6 - 0.0
20/03:30am 10.2 9.3 7.8 85 1.2 ENE 2 7 1 4 1023.6 - 0.0
20/03:00am 10.2 9.1 6.9 80 1.6 NNW 2 6 1 3 1023.9 1023.5 0.0
20/02:30am 10.2 9.1 6.7 79 1.7 SE 2 7 1 4 1024.0 - 0.0
20/02:00am 10.0 7.8 6.2 77 1.8 ESE 7 9 4 5 1024.3 - 0.0
20/01:30am 10.2 9.4 6.7 79 1.7 CALM 0 0 0 0 1024.5 - 0.0
20/01:00am 11.8 10.7 7.1 73 2.3 N 2 6 1 3 1024.6 - 0.0
20/12:30am 12.1 11.5 7.2 72 2.4 CALM 0 0 0 0 1024.9 - 0.0
20/12:00am 11.1 9.8 6.0 71 2.4 E 2 6 1 3 1025.1 1024.7 0.0
 
Date/Time
EDT
Tmp

°C
App
Tmp
°C
Dew
Point
°C
Rel
Hum
%
Delta-T

°C
Wind Press
QNH
hPa
Press
MSL
hPa
Rain
since
9 am
mm
Dir
 
Spd
km/h
Gust
km/h
Spd
kts
Gust
kts
19/11:30pm 12.7 10.8 6.5 66 3.1 S 6 7 3 4 1025.2 - 0.0
19/11:00pm 13.4 12.4 7.2 66 3.1 NE 2 7 1 4 1025.0 - 0.0
19/10:30pm 13.8 11.9 6.9 63 3.5 ENE 6 7 3 4 1025.0 - 0.0
19/10:00pm 14.1 12.5 6.5 60 3.8 ENE 4 6 2 3 1025.3 - 0.0
19/09:30pm 16.5 13.9 6.3 51 5.1 N 9 11 5 6 1024.8 - 0.0
19/09:00pm 17.2 14.0 6.7 50 5.3 NE 13 17 7 9 1024.6 1024.2 0.0
19/08:30pm 19.0 15.0 6.5 44 6.4 NW 17 20 9 11 1024.4 - 0.0
19/08:00pm 19.5 14.2 6.6 43 6.7 NW 24 28 13 15 1023.9 - 0.0
19/07:30pm 20.0 15.4 6.7 42 6.9 NW 20 30 11 16 1023.4 - 0.0
19/07:00pm 20.6 17.5 7.2 42 7.0 N 13 19 7 10 1023.2 - 0.0
19/06:30pm 21.8 17.5 6.9 38 7.9 N 19 24 10 13 1023.0 - 0.0
19/06:00pm 22.0 16.7 7.0 38 7.9 NNW 24 30 13 16 1022.8 1022.4 0.0
19/05:30pm 23.1 17.6 9.1 41 7.7 NNW 28 35 15 19 1022.6 - 0.0
19/05:00pm 24.4 20.0 10.3 41 8.0 NNW 24 28 13 15 1022.6 - 0.0
19/04:30pm 24.0 19.5 9.9 41 7.9 N 24 35 13 19 1022.6 - 0.0
19/04:00pm 24.0 18.5 9.2 39 8.2 N 28 35 15 19 1023.0 - 0.0
19/03:30pm 24.5 19.3 10.4 41 8.0 NNW 28 35 15 19 1023.2 - 0.0
19/03:00pm 24.8 20.6 11.0 42 7.9 NW 24 32 13 17 1023.5 1023.1 0.0
19/02:30pm 24.4 20.3 11.4 44 7.5 NNW 24 30 13 16 1023.7 - 0.0
19/02:00pm 24.1 20.1 10.4 42 7.8 N 22 33 12 18 1024.1 - 0.0
19/01:30pm 23.8 20.5 11.5 46 7.1 NNW 20 30 11 16 1024.6 - 0.0
19/01:00pm 22.5 19.1 9.0 42 7.4 NNW 17 22 9 12 1025.0 - 0.0
19/12:30pm 22.3 19.6 8.8 42 7.4 NNW 13 20 7 11 1025.3 - 0.0
19/12:00pm 21.4 18.8 10.6 50 6.0 NNW 15 26 8 14 1025.9 1025.5 0.0
19/11:30am 20.5 17.5 9.4 49 6.1 WNW 15 20 8 11 1026.3 - 0.0
19/11:00am 19.1 17.2 9.0 52 5.4 NW 9 13 5 7 1026.7 - 0.0
19/10:30am 16.9 15.3 7.8 55 4.7 N 6 11 3 6 1027.1 - 0.0
19/10:00am 15.5 14.0 7.0 57 4.3 NNW 4 9 2 5 1027.4 - 0.0
19/09:30am 14.1 12.4 6.0 58 4.0 NNW 4 7 2 4 1027.5 - 0.0
19/09:00am 12.6 11.9 7.1 69 2.7 CALM 0 6 0 3 1027.8 1027.4 0.0
19/08:30am 11.0 8.9 6.6 74 2.1 NW 7 9 4 5 1027.8 - 0.0
19/08:00am 9.3 8.5 6.6 83 1.3 CALM 0 6 0 3 1027.6 - 0.0
19/07:30am 7.2 5.0 6.1 93 0.5 NNW 7 7 4 4 1027.5 - 0.0
19/07:00am 5.6 4.3 4.2 91 0.6 CALM 0 0 0 0 1027.1 - 0.0
19/06:30am 4.4 3.0 3.7 95 0.3 CALM 0 2 0 1 1026.7 - 0.0
19/06:00am 3.7 2.2 2.8 94 0.4 CALM 0 6 0 3 1026.2 1025.8 0.0
19/05:30am 4.2 1.4 3.0 92 0.5 N 7 7 4 4 1026.0 - 0.0
19/05:00am 4.6 1.8 3.1 90 0.6 N 7 9 4 5 1026.1 - 0.0
19/04:30am 5.8 4.6 4.8 93 0.4 CALM 0 0 0 0 1025.9 - 0.0
19/04:00am 4.6 2.7 2.9 89 0.7 SE 2 6 1 3 1026.0 - 0.0
19/03:30am 5.1 2.5 4.1 93 0.4 SSW 7 9 4 5 1026.1 - 0.0
19/03:00am 4.5 2.8 2.0 84 1.0 CALM 0 0 0 0 1026.2 1025.8 0.0
19/02:30am 5.4 4.0 3.6 88 0.8 CALM 0 0 0 0 1026.5 - 0.0
19/02:00am 5.1 3.5 2.5 83 1.1 CALM 0 0 0 0 1026.8 - 0.0
19/01:30am 6.2 3.7 3.9 85 1.0 ENE 6 7 3 4 1026.7 - 0.0
19/01:00am 6.8 4.5 4.6 86 1.0 SSE 6 7 3 4 1027.2 - 0.0
19/12:30am 6.4 4.6 3.4 81 1.3 NNE 2 9 1 5 1027.2 - 0.0
19/12:00am 7.0 5.8 4.8 86 1.0 CALM 0 0 0 0 1027.2 1026.8 0.0
 
Date/Time
EDT
Tmp

°C
App
Tmp
°C
Dew
Point
°C
Rel
Hum
%
Delta-T

°C
Wind Press
QNH
hPa
Press
MSL
hPa
Rain
since
9 am
mm
Dir
 
Spd
km/h
Gust
km/h
Spd
kts
Gust
kts
18/11:30pm 9.0 6.7 4.8 75 1.9 N 6 9 3 5 1027.2 - 0.0
18/11:00pm 9.5 7.0 4.9 73 2.1 N 7 9 4 5 1027.6 - 0.0
18/10:30pm 10.1 7.6 4.9 70 2.4 E 7 9 4 5 1027.7 - 0.0
18/10:00pm 9.0 6.4 4.4 73 2.1 S 7 9 4 5 1027.6 - 0.0
18/09:30pm 10.8 9.2 4.3 64 3.0 NNE 2 6 1 3 1027.3 - 0.0
18/09:00pm 12.4 10.1 4.6 59 3.7 ENE 6 9 3 5 1027.2 1026.8 0.0
18/08:30pm 12.8 9.7 5.7 62 3.4 NE 11 13 6 7 1026.8 - 0.0
18/08:00pm 13.4 10.7 5.6 59 3.8 NNE 9 11 5 6 1026.5 - 0.0
18/07:30pm 15.0 12.0 5.8 54 4.5 N 11 15 6 8 1026.2 - 0.0
18/07:00pm 16.8 13.1 6.3 50 5.3 N 15 17 8 9 1025.9 - 0.0
18/06:30pm 18.3 14.3 6.8 47 5.9 N 17 22 9 12 1025.6 - 0.0
18/06:00pm 19.0 15.1 7.1 46 6.2 N 17 24 9 13 1025.5 1025.1 0.0
18/05:30pm 19.2 15.7 7.3 46 6.2 NNW 15 20 8 11 1025.4 - 0.0
18/05:00pm 19.4 15.8 6.8 44 6.5 N 15 22 8 12 1025.5 - 0.0
18/04:30pm 20.0 16.8 6.7 42 6.9 N 13 19 7 10 1025.2 - 0.0
18/04:00pm 19.8 16.3 5.5 39 7.2 N 13 24 7 13 1025.4 - 0.0
18/03:30pm 19.6 17.3 5.6 40 7.1 NNE 7 17 4 9 1025.7 - 0.0
18/03:00pm 19.3 16.6 5.4 40 7.0 N 9 19 5 10 1026.1 1025.7 0.0
18/02:30pm 19.2 16.3 6.7 44 6.5 N 11 17 6 9 1026.7 - 0.0
18/02:00pm 18.0 14.8 4.9 42 6.5 NW 11 19 6 10 1027.1 - 0.0
18/01:30pm 18.0 15.0 5.9 45 6.1 N 11 17 6 9 1027.4 - 0.0
18/01:00pm 17.3 13.7 4.9 44 6.1 NW 13 17 7 9 1027.8 - 0.0
18/12:30pm 17.1 14.9 7.7 54 4.9 W 9 17 5 9 1028.1 - 0.0
18/12:00pm 16.0 14.2 7.2 56 4.5 WNW 6 11 3 6 1028.6 1028.2 0.0
18/11:30am 15.3 12.9 6.8 57 4.3 WNW 9 13 5 7 1028.9 - 0.0
18/11:00am 14.4 12.2 6.0 57 4.1 WNW 7 13 4 7 1029.1 - 0.0
18/10:30am 13.6 11.7 6.9 64 3.3 WNW 6 11 3 6 1029.6 - 0.0
18/10:00am 12.6 10.6 6.9 68 2.8 NNW 7 11 4 6 1029.8 - 0.0
18/09:30am 11.3 9.6 5.8 69 2.6 N 4 7 2 4 1030.1 - 0.0
18/09:00am 10.1 7.5 5.9 75 2.0 SSW 9 11 5 6 1030.1 1029.8 0.0
18/08:30am 8.7 6.6 6.7 87 1.0 SW 7 9 4 5 1029.9 - 0.0
18/08:00am 6.9 4.7 6.3 96 0.3 SSW 7 9 4 5 1029.8 - 0.0
18/07:30am 4.8 3.2 4.7 99 0.0 NNW 2 9 1 5 1029.3 - 0.0
18/07:10am 3.0 1.5 2.9 99 0.0 CALM 0 0 0 0 1029.2 - 0.0
18/07:00am 2.6 1.0 2.5 99 0.0 CALM 0 - 0 - 1029.0 - 0.0
18/06:33am 1.0 -0.9 0.6 97 0.2 CALM 0 - 0 - 1029.0 - 0.0
18/06:30am 0.6 -1.4 0.0 96 0.2 CALM 0 - 0 - 1029.0 - 0.0
18/06:27am 0.6 -1.4 0.0 96 0.2 CALM 0 0 0 0 1029.0 - 0.0
18/06:00am 2.4 0.7 2.1 98 0.1 CALM 0 0 0 0 1028.6 1028.2 0.0
18/05:30am 1.3 -0.6 0.6 95 0.3 CALM 0 0 0 0 1028.5 - 0.0
18/05:00am 2.3 0.6 1.9 97 0.2 CALM 0 0 0 0 1028.3 - 0.0
18/04:30am 2.8 -0.2 2.2 96 0.2 N 7 9 4 5 1028.0 - 0.0
18/04:00am 3.0 1.4 2.6 97 0.2 CALM 0 0 0 0 1028.1 - 0.0
18/03:30am 2.4 -0.1 1.8 96 0.2 S 4 9 2 5 1028.1 - 0.0
18/03:00am 3.7 0.5 3.3 97 0.2 SSW 9 11 5 6 1028.0 1027.7 0.0
18/02:30am 3.3 -0.4 2.6 95 0.3 SE 11 11 6 6 1028.1 - 0.0
18/02:00am 3.8 0.5 2.6 92 0.5 SE 9 11 5 6 1028.5 - 0.0
18/01:56am 3.9 0.6 2.6 91 0.5 SE 9 11 5 6 1028.5 - 0.0
18/01:30am 5.5 4.0 4.9 96 0.3 NNE 2 7 1 4 1028.7 - 0.0
18/01:00am 4.4 2.6 3.7 95 0.3 ENE 2 6 1 3 1028.8 - 0.0
18/12:58am 4.5 2.8 3.8 95 0.3 ENE 2 6 1 3 1028.9 - 0.0
18/12:30am 4.5 1.8 3.5 93 0.4 ENE 7 9 4 5 1029.0 - 0.0
18/12:00am 4.1 0.8 2.3 88 0.7 SE 9 11 5 6 1029.1 1028.7 0.0

Latest Capital City Observations: Canberra | Sydney | Melbourne | Brisbane | Adelaide | Perth | Hobart | Darwin

Other Formats:

Comma delimited format used in spreadsheet applications
http://www.bom.gov.au/fwo/IDN60903/IDN60903.94926.axf

JavaScript Object Notation format (JSON) in row-major order
http://www.bom.gov.au/fwo/IDN60903/IDN60903.94926.json